| time (UTC) | temp F | wind direction | speed MPH | gust MPH | rain 1hr in | rain 24hr in | rain mn in | humidity % | barometer mb |
| 20260905092615 | 57 | 173 | 0.0 | 0.0 | 0.00 | 0.00 | 0.07 | 94 | 1015.6 |
| 20260905091614 | 57 | 173 | 0.0 | 0.0 | 0.00 | 0.00 | 0.07 | 93 | 1015.6 |
| 20260905085612 | 57 | 173 | 0.0 | 0.0 | 0.00 | 0.00 | 0.07 | 93 | 1015.6 |
| 20260905084611 | 57 | 173 | 0.0 | 0.0 | 0.00 | 0.00 | 0.07 | 93 | 1015.6 |
| 20260905082609 | 57 | 173 | 0.0 | 0.0 | 0.00 | 0.00 | 0.07 | 93 | 1015.4 |
| 20260905080607 | 57 | 173 | 0.0 | 0.0 | 0.00 | 0.00 | 0.07 | 93 | 1015.4 |
| 20260905075606 | 57 | 173 | 0.0 | 0.0 | 0.00 | 0.00 | 0.07 | 93 | 1015.3 |
| 20260905074605 | 57 | 173 | 0.0 | 0.0 | 0.00 | 0.00 | 0.07 | 93 | 1015.3 |
| 20260905073604 | 57 | 173 | 0.0 | 0.0 | 0.00 | 0.00 | 0.07 | 93 | 1015.2 |
| 20260905072603 | 57 | 173 | 0.0 | 0.0 | 0.00 | 0.00 | 0.07 | 93 | 1015.3 |
| 20260905071602 | 57 | 173 | 0.0 | 0.0 | 0.00 | 0.00 | 0.07 | 93 | 1015.3 |
| 20260905070601 | 57 | 173 | 0.0 | 0.0 | 0.00 | 0.00 | 0.07 | 93 | 1015.1 |
| 20260905065559 | 57 | 173 | 0.0 | 0.0 | 0.00 | 0.00 | 0.06 | 93 | 1015.1 |
| 20260905064559 | 57 | 173 | 0.0 | 0.0 | 0.00 | 0.00 | 0.06 | 93 | 1015.0 |
| 20260905063557 | 57 | 173 | 0.0 | 0.0 | 0.00 | 0.00 | 0.06 | 93 | 1014.9 |
| 20260905062557 | 57 | 173 | 0.0 | 0.0 | 0.00 | 0.00 | 0.06 | 93 | 1014.8 |
| 20260905061555 | 57 | 173 | 0.0 | 0.0 | 0.00 | 0.00 | 0.06 | 93 | 1014.6 |
| 20260905055553 | 57 | 173 | 0.0 | 0.0 | 0.00 | 0.00 | 0.06 | 93 | 1014.6 |
| 20260905054552 | 57 | 173 | 0.0 | 0.0 | 0.00 | 0.00 | 0.06 | 93 | 1014.7 |
| 20260905053551 | 57 | 173 | 0.0 | 0.0 | 0.00 | 0.00 | 0.06 | 93 | 1014.6 |
| 20260905044547 | 56 | 173 | 0.0 | 0.0 | 0.00 | 0.00 | 0.06 | 93 | 1014.5 |
| 20260905043545 | 56 | 172 | 0.0 | 0.0 | 0.00 | 0.00 | 0.06 | 92 | 1014.5 |
| 20260905042544 | 56 | 172 | 0.0 | 0.0 | 0.00 | 0.00 | 0.06 | 91 | 1014.6 |
| 20260905041543 | 56 | 172 | 0.0 | 0.0 | 0.00 | 0.00 | 0.06 | 91 | 1014.5 |
| 20260905040542 | 57 | 172 | 0.0 | 0.0 | 0.00 | 0.00 | 0.06 | 91 | 1014.5 |
| 20260905035542 | 57 | 172 | 0.0 | 0.0 | 0.00 | 0.00 | 0.06 | 90 | 1014.3 |
| 20260905034541 | 57 | 172 | 0.0 | 0.0 | 0.00 | 0.00 | 0.06 | 90 | 1014.2 |
| 20260905033539 | 58 | 172 | 0.0 | 0.0 | 0.00 | 0.00 | 0.06 | 90 | 1014.1 |
| 20260905032539 | 58 | 172 | 0.0 | 0.0 | 0.00 | 0.00 | 0.06 | 90 | 1014.0 |
| 20260905031539 | 58 | 172 | 0.0 | 0.0 | 0.00 | 0.00 | 0.06 | 90 | 1013.9 |
| 20260905030536 | 59 | 172 | 0.0 | 0.0 | 0.00 | 0.00 | 0.06 | 89 | 1013.8 |
| 20260905025535 | 59 | 172 | 0.0 | 0.0 | 0.00 | 0.00 | 0.06 | 89 | 1013.7 |
| 20260905024534 | 59 | 172 | 0.0 | 0.0 | 0.00 | 0.00 | 0.06 | 89 | 1013.8 |
| 20260905023534 | 60 | 172 | 0.0 | 0.0 | 0.00 | 0.00 | 0.06 | 88 | 1013.7 |
| 20260905022532 | 60 | 172 | 0.0 | 0.0 | 0.00 | 0.00 | 0.06 | 88 | 1013.8 |
| 20260905021531 | 60 | 172 | 0.0 | 0.0 | 0.00 | 0.00 | 0.05 | 88 | 1013.8 |
| 20260905020530 | 61 | 172 | 0.0 | 0.0 | 0.00 | 0.00 | 0.05 | 88 | 1013.7 |
| 20260905015529 | 61 | 172 | 0.0 | 0.0 | 0.00 | 0.00 | 0.05 | 88 | 1013.5 |
| 20260905014528 | 61 | 172 | 0.0 | 0.0 | 0.00 | 0.00 | 0.05 | 87 | 1013.5 |
| 20260905012526 | 61 | 172 | 0.0 | 0.0 | 0.00 | 0.00 | 0.05 | 88 | 1013.3 |
| 20260905011525 | 61 | 172 | 0.0 | 0.0 | 0.00 | 0.00 | 0.05 | 88 | 1013.2 |
| 20260905010524 | 61 | 172 | 0.0 | 0.0 | 0.00 | 0.00 | 0.05 | 88 | 1013.2 |
| 20260905005523 | 61 | 172 | 0.0 | 0.0 | 0.00 | 0.00 | 0.05 | 88 | 1013.1 |
| 20260905003521 | 61 | 172 | 0.0 | 0.0 | 0.00 | 0.00 | 0.05 | 87 | 1013.1 |
| 20260905002520 | 61 | 172 | 0.0 | 0.0 | 0.00 | 0.00 | 0.05 | 88 | 1013.0 |
| 20260905001519 | 61 | 172 | 0.0 | 0.0 | 0.00 | 0.00 | 0.05 | 88 | 1013.0 |
| 20260905000518 | 61 | 172 | 0.0 | 0.0 | 0.00 | 0.00 | 0.04 | 88 | 1013.1 |
| 20260904235517 | 61 | 171 | 0.0 | 0.0 | 0.00 | 0.00 | 0.04 | 89 | 1013.2 |
| 20260904233515 | 61 | 171 | 0.0 | 0.0 | 0.00 | 0.00 | 0.04 | 89 | 1013.2 |
| 20260904231513 | 60 | 171 | 0.0 | 0.0 | 0.00 | 0.00 | 0.04 | 92 | 1013.0 |
| 20260904230512 | 59 | 171 | 0.0 | 0.0 | 0.00 | 0.00 | 0.04 | 91 | 1013.0 |
| 20260904225511 | 58 | 171 | 0.0 | 0.0 | 0.00 | 0.00 | 0.03 | 90 | 1013.0 |
| 20260904224510 | 58 | 171 | 0.0 | 0.0 | 0.00 | 0.00 | 0.03 | 90 | 1012.9 |
| 20260904223509 | 58 | 171 | 0.0 | 0.0 | 0.00 | 0.00 | 0.03 | 89 | 1013.0 |
| 20260904222508 | 58 | 171 | 0.0 | 0.0 | 0.00 | 0.00 | 0.03 | 87 | 1012.9 |
| 20260904220506 | 60 | 171 | 0.0 | 0.0 | 0.00 | 0.00 | 0.02 | 85 | 1013.0 |
| 20260904215505 | 61 | 172 | 0.0 | 0.0 | 0.00 | 0.00 | 0.02 | 85 | 1012.9 |
| 20260904213503 | 64 | 224 | 0.0 | 0.0 | 0.00 | 0.00 | 0.01 | 81 | 1012.5 |
| 20260904212502 | 65 | 224 | 2.0 | 0.0 | 0.00 | 0.00 | 0.01 | 76 | 1012.4 |
| 20260904211501 | 67 | 242 | 0.0 | 0.0 | 0.00 | 0.00 | 0.01 | 67 | 1012.1 |
| 20260904210500 | 68 | 232 | 0.0 | 0.0 | 0.00 | 0.00 | 0.01 | 63 | 1012.0 |
| 20260904203457 | 71 | 360 | 0.0 | 0.0 | 0.00 | 0.00 | 0.01 | 61 | 1011.7 |
| 20260904202456 | 70 | 360 | 0.0 | 0.0 | 0.00 | 0.00 | 0.01 | 64 | 1011.7 |
| 20260904201454 | 69 | 323 | 0.0 | 0.0 | 0.00 | 0.00 | 0.01 | 63 | 1011.8 |
| 20260904200454 | 67 | 324 | 0.0 | 0.0 | 0.00 | 0.00 | 0.01 | 70 | 1011.8 |
| 20260904195452 | 66 | 330 | 4.0 | 0.0 | 0.00 | 0.00 | 0.01 | 72 | 1011.9 |
| 20260904194451 | 66 | 331 | 5.0 | 0.0 | 0.00 | 0.00 | 0.01 | 70 | 1012.0 |
| 20260904193452 | 67 | 321 | 0.0 | 0.0 | 0.00 | 0.00 | 0.01 | 70 | 1012.0 |
| 20260904192450 | 67 | 327 | 3.0 | 0.0 | 0.00 | 0.00 | 0.01 | 71 | 1012.0 |
| 20260904191448 | 67 | 331 | 0.0 | 0.0 | 0.00 | 0.00 | 0.01 | 69 | 1012.1 |
| 20260904190447 | 67 | 330 | 0.0 | 0.0 | 0.00 | 0.00 | 0.01 | 68 | 1012.1 |
| 20260904185446 | 66 | 119 | 0.0 | 0.0 | 0.00 | 0.00 | 0.01 | 68 | 1012.1 |
| 20260904184445 | 66 | 119 | 0.0 | 0.0 | 0.00 | 0.00 | 0.01 | 67 | 1012.1 |
| 20260904183445 | 66 | 132 | 0.0 | 0.0 | 0.00 | 0.00 | 0.01 | 70 | 1012.0 |
| 20260904182443 | 66 | 132 | 0.0 | 0.0 | 0.00 | 0.00 | 0.01 | 71 | 1012.0 |
| 20260904181442 | 66 | 127 | 4.0 | 0.0 | 0.00 | 0.00 | 0.01 | 72 | 1012.0 |
| 20260904180441 | 64 | 122 | 0.0 | 0.0 | 0.00 | 0.00 | 0.01 | 74 | 1011.9 |
| 20260904175440 | 63 | 129 | 0.0 | 0.0 | 0.00 | 0.00 | 0.01 | 74 | 1011.9 |
| 20260904174440 | 63 | 133 | 0.0 | 0.0 | 0.00 | 0.00 | 0.01 | 77 | 1011.9 |
| 20260904173438 | 62 | 133 | 0.0 | 0.0 | 0.00 | 0.00 | 0.01 | 80 | 1011.9 |
| 20260904172437 | 62 | 133 | 0.0 | 0.0 | 0.00 | 0.00 | 0.01 | 84 | 1011.8 |
| 20260904171436 | 61 | 132 | 0.0 | 0.0 | 0.00 | 0.00 | 0.01 | 87 | 1011.7 |
| 20260904170436 | 60 | 86 | 2.0 | 0.0 | 0.00 | 0.00 | 0.01 | 87 | 1011.8 |
| 20260904165434 | 59 | 79 | 0.0 | 0.0 | 0.00 | 0.00 | 0.01 | 90 | 1011.7 |
| 20260904164433 | 58 | 72 | 0.0 | 0.0 | 0.00 | 0.00 | 0.01 | 91 | 1011.7 |
| 20260904163432 | 58 | 169 | 0.0 | 0.0 | 0.00 | 0.00 | 0.01 | 92 | 1011.6 |
| 20260904162431 | 57 | 170 | 0.0 | 0.0 | 0.00 | 0.00 | 0.01 | 93 | 1011.6 |
| 20260904161430 | 57 | 170 | 0.0 | 0.0 | 0.00 | 0.00 | 0.01 | 93 | 1011.5 |
| 20260904160429 | 56 | 170 | 0.0 | 0.0 | 0.00 | 0.00 | 0.01 | 93 | 1011.6 |
| 20260904155428 | 56 | 170 | 0.0 | 0.0 | 0.00 | 0.00 | 0.00 | 93 | 1011.6 |
| 20260904154427 | 56 | 170 | 0.0 | 0.0 | 0.00 | 0.00 | 0.00 | 93 | 1011.7 |
| 20260904153427 | 56 | 170 | 0.0 | 0.0 | 0.00 | 0.00 | 0.00 | 93 | 1011.7 |
| 20260904152426 | 55 | 170 | 0.0 | 0.0 | 0.00 | 0.00 | 0.07 | 93 | 1011.6 |
| 20260904150423 | 55 | 170 | 0.0 | 0.0 | 0.00 | 0.00 | 0.07 | 93 | 1011.4 |
| 20260904145422 | 55 | 170 | 0.0 | 0.0 | 0.00 | 0.00 | 0.07 | 93 | 1011.3 |
| 20260904143420 | 54 | 170 | 0.0 | 0.0 | 0.00 | 0.00 | 0.07 | 93 | 1011.0 |
| 20260904142419 | 54 | 170 | 0.0 | 0.0 | 0.00 | 0.00 | 0.07 | 93 | 1010.9 |
| 20260904141418 | 54 | 170 | 0.0 | 0.0 | 0.00 | 0.00 | 0.07 | 93 | 1010.8 |
| 20260904140417 | 54 | 170 | 0.0 | 0.0 | 0.00 | 0.00 | 0.07 | 93 | 1010.8 |
| 20260904134415 | 54 | 170 | 0.0 | 0.0 | 0.00 | 0.00 | 0.07 | 93 | 1010.6 |
| 20260904133414 | 54 | 170 | 0.0 | 0.0 | 0.00 | 0.00 | 0.07 | 93 | 1010.5 |
| 20260904132413 | 54 | 170 | 0.0 | 0.0 | 0.00 | 0.00 | 0.07 | 93 | 1010.4 |
| 20260904131412 | 54 | 170 | 0.0 | 0.0 | 0.00 | 0.00 | 0.07 | 93 | 1010.5 |
| 20260904130411 | 55 | 170 | 0.0 | 0.0 | 0.00 | 0.00 | 0.07 | 93 | 1010.5 |
| 20260904125410 | 54 | 170 | 0.0 | 0.0 | 0.00 | 0.00 | 0.07 | 93 | 1010.3 |
| 20260904124409 | 54 | 170 | 0.0 | 0.0 | 0.00 | 0.00 | 0.07 | 92 | 1010.2 |
| 20260904123408 | 54 | 170 | 0.0 | 0.0 | 0.00 | 0.00 | 0.06 | 92 | 1010.1 |
| 20260904122407 | 55 | 170 | 0.0 | 0.0 | 0.00 | 0.00 | 0.06 | 92 | 1010.1 |
| 20260904121406 | 55 | 170 | 0.0 | 0.0 | 0.00 | 0.00 | 0.06 | 92 | 1009.9 |
| 20260904120405 | 55 | 170 | 0.0 | 0.0 | 0.00 | 0.00 | 0.05 | 92 | 1009.9 |
| 20260904115404 | 55 | 170 | 0.0 | 0.0 | 0.00 | 0.00 | 0.05 | 92 | 1009.9 |
| 20260904114403 | 55 | 170 | 0.0 | 0.0 | 0.00 | 0.00 | 0.05 | 92 | 1009.9 |
| 20260904113402 | 55 | 170 | 0.0 | 0.0 | 0.00 | 0.00 | 0.04 | 92 | 1009.7 |
| 20260904112401 | 55 | 169 | 0.0 | 0.0 | 0.00 | 0.00 | 0.04 | 92 | 1009.6 |
| 20260904110359 | 55 | 169 | 0.0 | 0.0 | 0.00 | 0.00 | 0.03 | 92 | 1009.6 |
| 20260904105358 | 55 | 169 | 0.0 | 0.0 | 0.00 | 0.00 | 0.03 | 92 | 1009.6 |
| 20260904104357 | 55 | 169 | 0.0 | 0.0 | 0.00 | 0.00 | 0.03 | 91 | 1009.6 |
| 20260904103356 | 55 | 169 | 0.0 | 0.0 | 0.00 | 0.00 | 0.03 | 91 | 1009.5 |
| 20260904102355 | 55 | 169 | 0.0 | 0.0 | 0.00 | 0.00 | 0.03 | 91 | 1009.4 |
| 20260904101354 | 55 | 169 | 0.0 | 0.0 | 0.00 | 0.00 | 0.03 | 91 | 1009.3 |
| 20260904100353 | 55 | 169 | 0.0 | 0.0 | 0.00 | 0.00 | 0.03 | 91 | 1009.3 |
| 20260904095352 | 55 | 169 | 0.0 | 0.0 | 0.00 | 0.00 | 0.03 | 91 | 1009.2 |
| 20260904094350 | 55 | 169 | 0.0 | 0.0 | 0.00 | 0.00 | 0.03 | 91 | 1009.2 |
| 20260904093349 | 56 | 169 | 0.0 | 0.0 | 0.00 | 0.00 | 0.03 | 91 | 1009.2 |